Weather History for KDSV - October, 2012

Change the Weather History Date:

Sunday, October 14, 2012

  Actual Average Record
Temperature  
Mean Temperature 66 °F -  
Max Temperature 79 °F 64 °F 84 °F (1969)
Min Temperature 55 °F 41 °F 25 °F (1993)
Cooling Degree Days 2    
Growing Degree Days 16 (Base 50)    
Moisture  
Dew Point 52 °F    
Average Humidity 60    
Maximum Humidity 72    
Minimum Humidity 43    
Precipitation  
Precipitation 0.01 in - - ()
Sea Level Pressure  
Sea Level Pressure 29.89 in    
Wind  
Wind Speed 10 mph (SSE)    
Max Wind Speed 17 mph    
Max Gust Speed 29 mph    
Visibility 10 miles    
Events      
Averages and records for this station are not official NWS values.
T = Trace of Precipitation, MM = Missing Value Source: NWS Daily Summary

Daily Weather History Graph

Daily Weather History Graph

Search for Another Location

Airport or City:

Trip Planner

Search our weather history database for the weather conditions in past years. The results will help you decide how hot, cold, wet, or windy it might be!

Date:

Astronomy

Oct. 14, 2012 Rise Set
Actual Time 7:23 AM EDT 6:29 PM EDT
Civil Twilight 6:54 AM EDT 6:57 PM EDT
Nautical Twilight 6:22 AM EDT 7:30 PM EDT
Astronomical Twilight 5:49 AM EDT 8:03 PM EDT
Moon 6:19 AM EDT (10/14) 5:47 PM EDT (10/14)
Length of Visible Light 12h 02m
Length of Day
11h 06m
Waning Crescent, 1% of the Moon is Illuminated
Oct 14
Waning Crescent
Oct 15
New
Oct 21
First Quarter
Oct 29
Full
Nov 6
Last Quarter

Hourly Weather History & Observations

Time (EDT) Temp. Dew Point Humidity Pressure Visibility Wind Dir Wind Speed Gust Speed Precip Events Conditions
1:54 AM 55.0 °F 41.0 °F 59% 30.02 in 10.0 mi SE 9.2 mph - 0.00 in   Overcast
2:54 AM 55.0 °F 46.0 °F 72% 30.01 in 10.0 mi SE 11.5 mph - 0.01 in   Overcast
3:54 AM 57.0 °F 46.9 °F 69% 29.99 in 10.0 mi SE 8.1 mph - N/A   Overcast
4:54 AM 60.1 °F 48.0 °F 64% 29.99 in 10.0 mi South 9.2 mph 17.3 mph N/A   Overcast
5:54 AM 60.1 °F 50.0 °F 69% 29.98 in 10.0 mi SSE 9.2 mph 17.3 mph 0.00 in   Overcast
6:54 AM 61.0 °F 51.1 °F 70% 29.98 in 10.0 mi SSE 10.4 mph 17.3 mph N/A   Overcast
7:54 AM 61.0 °F 52.0 °F 72% 30.00 in 10.0 mi East 12.7 mph - 0.00 in   Overcast
8:54 AM 63.0 °F 52.0 °F 67% 30.00 in 10.0 mi SE 8.1 mph - N/A   Mostly Cloudy
9:54 AM 66.9 °F 55.0 °F 66% 29.99 in 10.0 mi Variable 5.8 mph - N/A   Scattered Clouds
10:54 AM 68.0 °F 55.9 °F 65% 29.98 in 10.0 mi SSE 4.6 mph - N/A   Clear
11:54 AM 71.1 °F 57.0 °F 61% 29.96 in 10.0 mi South 13.8 mph 18.4 mph N/A   Clear
12:54 PM 73.0 °F 57.9 °F 59% 29.92 in 10.0 mi South 12.7 mph 19.6 mph N/A   Clear
1:54 PM 75.0 °F 57.0 °F 53% 29.88 in 10.0 mi South 13.8 mph 20.7 mph N/A   Clear
2:54 PM 75.9 °F 55.9 °F 50% 29.84 in 10.0 mi South 9.2 mph 18.4 mph N/A   Clear
4:54 PM 78.1 °F 54.0 °F 43% 29.78 in 10.0 mi SSW 11.5 mph 28.8 mph N/A   Clear
5:54 PM 75.0 °F 55.0 °F 50% 29.76 in 10.0 mi South 15.0 mph 25.3 mph N/A   Clear
6:54 PM 75.0 °F 54.0 °F 48% 29.77 in 10.0 mi South 11.5 mph - N/A   Clear
7:54 PM 71.1 °F 55.0 °F 57% 29.76 in 10.0 mi SE 8.1 mph - N/A   Partly Cloudy
8:54 PM 71.1 °F 53.1 °F 53% 29.74 in 10.0 mi SSE 17.3 mph 23.0 mph N/A   Partly Cloudy
9:54 PM 69.1 °F 52.0 °F 54% 29.73 in 10.0 mi SSE 12.7 mph - N/A   Partly Cloudy
10:54 PM 68.0 °F 52.0 °F 56% 29.71 in 10.0 mi SSE 12.7 mph - N/A   Clear
11:54 PM 66.9 °F 52.0 °F 59% 29.69 in 10.0 mi SE 12.7 mph - N/A   Scattered Clouds